Location: Narrabri
(30.3170°S, 149.7830°E)
Time: 09:02:15
(UTC+10:00)

N. Korean satellite - Visible Passes

Search period start: 16 July 2018 00:00
Search period end: 26 July 2018 00:00
Orbit: 459 x 511 km, 97.2° (Epoch: 15 July)

Date Brightness Start Highest point End Pass type
(mag) Time Alt. Az. Time Alt. Az. Time Alt. Az.
16 Jul 6.4 05:58:11 10° N 06:01:38 68° W 06:05:07 10° SSW visible
16 Jul 8.9 19:04:20 10° SSW 19:07:19 24° WSW 19:10:18 10° NW visible
17 Jul 7.5 05:34:11 10° NNE 05:37:30 47° ESE 05:40:53 10° S visible
17 Jul 7.4 18:39:41 10° S 18:43:17 52° WSW 18:46:53 10° NNW visible
18 Jul 9.0 05:10:48 10° ENE 05:13:28 21° ESE 05:16:10 10° SSE visible
18 Jul 6.6 18:15:30 10° SSE 18:19:10 66° E 18:22:51 10° N visible
19 Jul 7.3 06:19:30 10° NNW 06:22:36 31° W 06:25:45 10° SW visible
19 Jul 7.6 17:51:44 10° SE 17:55:00 28° E 17:58:14 10° NNE visible
19 Jul 9.7 19:26:29 10° SW 19:28:08 13° WSW 19:29:48 10° W visible
20 Jul 6.4 05:54:58 10° N 05:58:25 77° WNW 06:01:56 10° SSW visible
20 Jul 8.8 19:01:03 10° SSW 19:04:09 26° WSW 19:07:17 10° NW visible
21 Jul 7.7 05:31:01 10° NNE 05:34:18 42° ESE 05:37:38 10° S visible
21 Jul 7.2 18:36:27 10° S 18:40:07 58° WSW 18:43:46 10° NNW visible
22 Jul 9.2 05:07:45 10° ENE 05:10:16 19° ESE 05:12:50 10° SSE visible
22 Jul 6.7 18:12:17 10° SSE 18:15:59 59° E 18:19:40 10° N visible
23 Jul 7.2 06:16:12 10° NNW 06:19:22 34° W 06:22:36 10° SSW visible
23 Jul 7.7 17:48:36 10° SE 17:51:48 26° E 17:54:58 10° NNE visible
23 Jul 9.7 19:22:59 10° SW 19:24:58 14° WSW 19:26:58 10° WNW visible
24 Jul 6.4 05:51:44 10° N 05:55:11 86° W 05:58:43 10° SSW visible
24 Jul 8.7 18:57:44 10° SSW 19:00:59 28° WSW 19:04:14 10° NW visible
25 Jul 7.9 05:27:50 10° NE 05:31:05 38° ESE 05:34:22 10° S visible
25 Jul 7.1 18:33:11 10° S 18:36:55 64° WSW 18:40:37 10° NNW visible
